Hourly Data Report for September 19, 2017

All times are specified in Local Standard Time (LST). Add 1 hour to adjust for Daylight Saving Time where and when it is observed.

SUSSEX FOUR CORNERS
NEW BRUNSWICK

45°44'30.048" N
65°31'44.039" W
47.00 m
8105210
71656
ASF

Download Data

Hourly Data (September 2017)
Hourly Data Report for September 19, 2017
Temp Definition
°C
Dew Point Temp Definition
°C
Rel Hum Definition
%
Wind Dir Definition
10's deg

Wind Spd Definition
km/h
Visibility Definition
km
Stn Press Definition
kPa
Hmdx Definition


Wind Chill Definition


Weather Definition


TIME
00:00 16.0 15.3 95   0   101.77     LegendNANA
01:00 16.6 16.0 96 19 3   101.78     LegendNANA
02:00 16.8 16.0 95 11 2   101.73     LegendNANA
03:00 16.5 16.0 97 1 3   101.71     LegendNANA
04:00 16.3 15.9 98 8 4   101.70     LegendNANA
05:00 16.4 16.1 98 3 2   101.69     LegendNANA
06:00 16.5 16.1 98 9 5   101.73     LegendNANA
07:00 16.6 16.3 98 36 5   101.71     LegendNANA
08:00 17.5 16.7 95 5 4   101.73     LegendNANA
09:00 18.3 16.9 92 5 6   101.75     LegendNANA
10:00 18.9 16.8 88 11 8   101.75     LegendNANA
11:00 19.6 17.0 85 11 5   101.72     LegendNANA
12:00 19.8 17.0 84 7 2   101.68     LegendNANA
13:00 20.4 17.3 82 10 3   101.61 26   LegendNANA
14:00 20.7 17.7 83 12 5   101.56 26   LegendNANA
15:00 21.5 18.1 81 11 5   101.47 28   LegendNANA
16:00 21.6 18.6 83 19 9   101.44 28   LegendNANA
17:00 21.4 18.6 84 29 5   101.42 28   LegendNANA
18:00 20.6 18.5 88 33 4   101.41 27   LegendNANA
19:00 20.3 18.5 90 2 3   101.42 27   LegendNANA
20:00 20.1 18.5 91 3 2   101.42 26   LegendNANA
21:00 19.6 18.4 93 36 3   101.41     LegendNANA
22:00 19.1 18.4 95 10 5   101.39     LegendNANA
23:00 19.3 18.5 95 3 1   101.34     LegendNANA

Notes on Data Quality.

Legend

  • E = Estimated
  • M = Missing
  • NA = Not Available
  • ‡ = Partner data that is not subject to review by the National Climate Archives
Date modified: